Total_Precipitation_Accumulation
0.66 0.83 1.01 1.22 1.45 1.67 1.76 1.77 1.72 1.72 1.75 1.76 1.66 1.47 1.27 1.21 1.11 1.07 1.10 1.08 1.05 1.09 1.02 0.87 0.85 0.88 0.79 0.70 0.68 0.69 0.66 0.57 0.54 0.49 0.35 0.25 0.21 0.18 0.14 0.12 0.12 0.12 0.13
0.57 0.66 0.85 1.02 1.29 1.54 1.78 1.86 1.84 1.85 1.73 1.60 1.66 1.66 1.60 1.46 1.35 1.29 1.24 1.18 1.15 1.12 1.10 1.09 1.05 1.05 1.02 0.97 0.91 0.89 0.83 0.75 0.74 0.68 0.60 0.40 0.26 0.19 0.15 0.16 0.16 0.16 0.16
0.52 0.57 0.67 0.77 1.03 1.31 1.62 1.81 1.91 1.94 1.93 1.87 2.00 1.95 1.85 1.63 1.39 1.22 1.22 1.23 1.24 1.25 1.18 1.16 1.18 1.20 1.19 1.11 1.07 1.06 1.03 0.95 0.89 0.85 0.87 0.63 0.38 0.26 0.21 0.20 0.21 0.21 0.20
0.52 0.58 0.63 0.70 0.87 1.10 1.34 1.54 1.81 2.00 2.07 2.13 2.08 1.96 1.76 1.53 1.31 1.28 1.39 1.41 1.38 1.32 1.29 1.26 1.24 1.24 1.20 1.14 1.18 1.21 1.13 1.13 1.07 1.02 0.92 0.79 0.60 0.52 0.37 0.27 0.27 0.28 0.27
0.52 0.57 0.63 0.69 0.81 1.01 1.20 1.33 1.55 1.86 1.96 1.91 1.89 1.96 1.83 1.62 1.51 1.48 1.46 1.44 1.37 1.31 1.26 1.25 1.27 1.24 1.20 1.15 1.17 1.22 1.23 1.22 1.19 1.13 1.07 1.06 0.92 0.76 0.68 0.49 0.38 0.37 0.36
0.61 0.63 0.68 0.72 0.75 0.85 1.05 1.23 1.32 1.53 1.68 1.67 1.72 1.79 1.71 1.64 1.54 1.41 1.37 1.39 1.35 1.26 1.20 1.19 1.21 1.24 1.23 1.18 1.17 1.24 1.29 1.29 1.22 1.15 1.06 1.02 0.96 0.85 0.84 0.74 0.54 0.47 0.39
0.76 0.78 0.75 0.79 0.80 0.82 0.88 1.03 1.14 1.25 1.41 1.55 1.64 1.63 1.65 1.62 1.55 1.45 1.38 1.36 1.32 1.24 1.18 1.16 1.17 1.20 1.23 1.27 1.32 1.32 1.29 1.32 1.30 1.25 1.19 1.12 1.02 0.95 0.97 0.94 0.76 0.62 0.50
0.89 0.90 0.89 0.98 1.01 0.98 0.92 0.94 0.99 1.02 1.14 1.33 1.47 1.51 1.55 1.52 1.42 1.33 1.26 1.22 1.16 1.15 1.17 1.22 1.26 1.27 1.27 1.27 1.29 1.26 1.22 1.23 1.22 1.21 1.20 1.16 1.08 1.08 1.10 1.10 1.13 1.02 0.81
0.94 0.99 1.03 1.04 1.00 0.96 0.94 0.94 0.98 0.95 0.92 1.01 1.14 1.23 1.30 1.30 1.24 1.16 1.09 1.08 1.07 1.07 1.11 1.17 1.22 1.23 1.21 1.19 1.19 1.17 1.14 1.16 1.17 1.15 1.14 1.11 1.04 1.05 1.06 1.08 1.17 1.28 1.14
0.81 0.90 0.91 0.88 0.91 0.92 0.91 0.93 0.97 1.00 0.94 0.91 0.97 1.06 1.06 1.04 1.00 0.99 0.94 0.88 0.89 0.90 0.93 1.00 1.07 1.09 1.08 1.06 1.07 1.06 1.03 1.07 1.06 1.06 1.08 1.06 0.99 0.98 1.01 1.05 1.10 1.20 1.27
0.63 0.66 0.67 0.70 0.74 0.79 0.85 0.93 1.03 1.03 0.91 0.93 0.97 0.97 0.99 1.00 0.92 0.86 0.85 0.86 0.83 0.82 0.86 0.89 0.93 0.95 0.96 0.97 0.96 0.94 0.92 0.93 0.93 0.94 0.97 0.98 0.97 1.00 1.01 1.03 1.07 1.13 1.22
0.55 0.54 0.53 0.52 0.52 0.57 0.62 0.71 0.80 0.81 0.79 0.82 0.90 0.87 0.89 0.97 0.94 0.86 0.82 0.81 0.77 0.71 0.71 0.74 0.77 0.78 0.79 0.80 0.82 0.82 0.81 0.80 0.80 0.81 0.86 0.87 0.90 0.93 0.96 1.02 1.06 1.09 1.13
0.42 0.39 0.39 0.41 0.41 0.41 0.46 0.55 0.63 0.63 0.65 0.68 0.73 0.73 0.74 0.80 0.82 0.85 0.84 0.80 0.78 0.72 0.64 0.62 0.63 0.64 0.66 0.67 0.68 0.70 0.70 0.72 0.72 0.71 0.74 0.77 0.83 0.89 0.89 0.92 0.95 0.96 0.98
0.31 0.27 0.27 0.28 0.29 0.32 0.38 0.42 0.45 0.47 0.49 0.50 0.51 0.54 0.59 0.62 0.62 0.64 0.68 0.68 0.68 0.65 0.61 0.57 0.54 0.54 0.57 0.61 0.63 0.65 0.67 0.67 0.68 0.69 0.71 0.73 0.75 0.78 0.80 0.84 0.86 0.86 0.86
0.19 0.17 0.17 0.18 0.20 0.22 0.26 0.30 0.35 0.39 0.43 0.44 0.43 0.45 0.47 0.49 0.51 0.49 0.48 0.48 0.51 0.53 0.53 0.53 0.53 0.51 0.50 0.53 0.57 0.60 0.64 0.66 0.68 0.69 0.70 0.72 0.79 0.80 0.78 0.77 0.77 0.78 0.82
0.12 0.11 0.10 0.11 0.14 0.15 0.17 0.22 0.27 0.32 0.35 0.38 0.40 0.41 0.41 0.41 0.42 0.42 0.41 0.39 0.40 0.43 0.46 0.51 0.55 0.59 0.60 0.73 0.69 0.63 0.64 0.68 0.69 0.67 0.65 0.64 0.68 0.67 0.68 0.67 0.66 0.71 0.79
0.09 0.09 0.08 0.08 0.08 0.10 0.16 0.21 0.25 0.26 0.28 0.30 0.30 0.30 0.32 0.34 0.35 0.38 0.42 0.46 0.51 0.52 0.56 0.60 0.65 0.69 0.76 0.84 0.76 0.71 0.63 0.65 0.66 0.63 0.58 0.54 0.52 0.54 0.47 0.50 0.54 0.57 0.64
0.05 0.05 0.05 0.05 0.06 0.08 0.13 0.20 0.28 0.30 0.33 0.36 0.34 0.31 0.32 0.38 0.43 0.49 0.56 0.65 0.72 0.76 0.80 0.83 0.84 0.84 0.83 0.81 0.72 0.69 0.61 0.58 0.54 0.49 0.44 0.40 0.37 0.35 0.37 0.39 0.47 0.45 0.44
0.05 0.04 0.05 0.06 0.07 0.09 0.11 0.16 0.25 0.32 0.36 0.41 0.45 0.45 0.47 0.55 0.61 0.70 0.79 0.81 0.87 0.87 0.84 0.82 0.80 0.77 0.71 0.66 0.57 0.49 0.43 0.43 0.42 0.37 0.34 0.34 0.31 0.37 0.43 0.43 0.45 0.35 0.31
0.09 0.06 0.07 0.08 0.11 0.14 0.17 0.23 0.31 0.40 0.46 0.51 0.57 0.59 0.61 0.64 0.66 0.68 0.70 0.70 0.69 0.67 0.61 0.57 0.53 0.50 0.46 0.44 0.39 0.36 0.32 0.30 0.29 0.29 0.29 0.34 0.34 0.40 0.47 0.43 0.38 0.32 0.28
0.19 0.17 0.17 0.19 0.22 0.26 0.32 0.40 0.46 0.55 0.61 0.61 0.64 0.65 0.63 0.62 0.58 0.51 0.45 0.43 0.40 0.36 0.32 0.29 0.27 0.24 0.23 0.24 0.24 0.26 0.25 0.26 0.26 0.25 0.26 0.29 0.39 0.45 0.48 0.41 0.33 0.34 0.37
0.20 0.24 0.28 0.28 0.29 0.35 0.43 0.50 0.55 0.57 0.53 0.47 0.43 0.41 0.35 0.32 0.30 0.26 0.24 0.23 0.22 0.22 0.20 0.17 0.16 0.14 0.13 0.14 0.16 0.19 0.23 0.25 0.24 0.23 0.23 0.27 0.38 0.41 0.39 0.36 0.35 0.39 0.38
0.08 0.12 0.17 0.20 0.21 0.22 0.25 0.28 0.26 0.24 0.21 0.17 0.15 0.15 0.14 0.14 0.15 0.14 0.14 0.14 0.14 0.15 0.14 0.14 0.13 0.12 0.12 0.14 0.18 0.20 0.23 0.28 0.28 0.25 0.27 0.30 0.32 0.31 0.31 0.34 0.38 0.37 0.33
0.06 0.05 0.06 0.07 0.07 0.06 0.06 0.06 0.06 0.06 0.06 0.06 0.07 0.07 0.08 0.09 0.09 0.09 0.09 0.10 0.11 0.13 0.14 0.15 0.15 0.15 0.15 0.15 0.18 0.22 0.25 0.28 0.29 0.29 0.28 0.28 0.26 0.27 0.28 0.30 0.32 0.33 0.34
0.06 0.06 0.07 0.07 0.07 0.07 0.06 0.06 0.06 0.06 0.06 0.07 0.08 0.09 0.10 0.11 0.12 0.12 0.13 0.15 0.16 0.18 0.20 0.19 0.20 0.21 0.21 0.20 0.27 0.32 0.31 0.33 0.35 0.37 0.32 0.29 0.27 0.27 0.26 0.27 0.28 0.30 0.34
0.05 0.06 0.07 0.09 0.09 0.08 0.08 0.08 0.08 0.08 0.08 0.09 0.09 0.10 0.11 0.12 0.13 0.14 0.15 0.17 0.19 0.21 0.22 0.22 0.22 0.21 0.23 0.27 0.33 0.35 0.36 0.39 0.44 0.45 0.36 0.29 0.27 0.27 0.27 0.28 0.30 0.32 0.35